Tracking 19242 objects as of 19-Sep-2018
HD Live streaming from Space Station
objects crossing your sky now

NSTAR A

Track NSTAR A now!
NSTAR A is classified as:


NORAD ID: 23651
Int'l Code: 1995-044A
Perigee: 36,044.3 km
Apogee: 36,189.0 km
Inclination: 9.9 °
Period: 1,452.6 minutes
Semi major axis: 42487 km
RCS: 15.8489 m2 (large)
Launch date: August 29, 1995
Source: Japan (JPN)
Launch site: FRENCH GUIANA (FRGUI)

Voice and TV broadcast to Japan and neighboring region.
aabbcc
Your satellite tracking list
Your tracking list is empty




NASA's NSSDC Master Catalog

Two Line Element Set (TLE):
1 23651U 95044A   18260.72108324 -.00000266 +00000-0 +00000-0 0  9998
2 23651 009.8910 040.0544 0017037 301.3355 251.7279 00.99130883083860
Source of the keplerian elements: AFSPC